Location: Neuvy Saint Sepulchre
(46.5953°N, 1.8122°E)
Time: 09:34:15
(UTC+02:00)

ISS - Pass Details

Date: 24 March 2024
Orbit: 413 x 419 km, 51.6° (Epoch: 13 April)

Event Time Altitude Azimuth Distance (km) Brightness Sun altitude
Rises 21:24:11 0° 296° (WNW) 2,368 1.6 -22.5°
Reaches altitude 10° 21:26:18 10° 299° (WNW) 1,504 0.2 -22.9°
Enters shadow 21:28:50 46° 318° (NW) 576 -2.7 -23.2°
